Location: Richmond
(37.5536°N, 77.4606°W)
Time: 05:46:15
(UTC-04:00)

ISS - Visible Passes

Search period start: 20 October 2014 00:00
Search period end: 30 October 2014 00:00
Orbit: 413 x 416 km, 51.6° (Epoch: 19 October)

Date Brightness Start Highest point End Pass type
(mag) Time Alt. Az. Time Alt. Az. Time Alt. Az.
20 Oct -0.8 19:44:49 10° N 19:46:09 12° NNE 19:46:09 12° NNE visible
21 Oct -0.5 20:31:24 10° NNW 20:32:01 14° NNW 20:32:01 14° NNW visible
22 Oct -1.6 19:42:39 10° NNW 19:45:04 20° NNE 19:45:04 20° NNE visible
23 Oct -1.2 18:54:00 10° NNW 18:55:59 15° NNE 18:57:59 10° ENE visible
23 Oct -0.9 20:29:46 10° NW 20:31:04 22° NW 20:31:04 22° NW visible
24 Oct -3.0 19:40:46 10° NW 19:44:00 46° NE 19:44:16 44° NE visible
25 Oct -2.1 18:51:51 10° NNW 18:54:48 28° NNE 18:57:37 11° E visible
25 Oct -1.0 20:28:31 10° WNW 20:30:31 25° W 20:30:31 25° W visible
26 Oct -2.8 19:39:08 10° WNW 19:42:24 57° SW 19:44:02 26° SSE visible
27 Oct -3.3 18:49:55 10° NW 18:53:15 73° NE 18:56:34 10° SE visible
28 Oct -0.5 19:38:05 10° W 19:40:29 19° SW 19:42:52 10° S visible
29 Oct -1.5 18:48:19 10° WNW 18:51:23 34° SW 18:54:26 10° SSE visible
